CUTE-1 (CO-55)

Last updated on Sun Nov 09 2025 00:03:10 GMT+0000 (Coordinated Universal Time)

1 27844U 03031E 25312.23447985 .00000557 00000+0 26077-3 0 9998 2 27844 98.6777 318.5812 0010673 105.5962 254.6396 14.24133971160225
UTC large
Height (km)
Speed (km/s)
/
Latitude / Longitude
Inclination (degrees)
Orbital Period (minutes)
Azimuth
Elevation
Range (km)
Doppler Factor

Next 0 passes for location: London (51.5072 / 0.1276)

Sorry there are no passes over London.